Погода в Александрове

Россия / Псковская область     56°06′03″N   29°03′29″E
темп.,
°C
ветер,
м/с
пор.,
м/с
влажн.,
%
обл.,
%
осадки,
мм/ч
давл.,
гПа
погр.,
м
14 апреля, ср
ср1400:00+9ссз3693100 1.9 1017327
03:00+6ссз4890100 4.2 1017321
06:00+5ссз3790100 0.4 1017394
09:00+5с3688100 0.4 1019426
12:00+4с4789100 0.3 1020407
15:00+5ссв4889100 0.8 1020439
18:00+4ссв41086100 0.1 1020509
21:00+4ссв41186100 0.3 1021577
15 апреля, чт
чт1500:00+4св41289100 0.1 1020560
03:00+4св51289100 0.1 1020549
06:00+4ссв51283100 0.0 1020525
09:00+4ссв51277100 0.0 1021543
12:00+4ссв51384100 0.3 1021613
15:00+4св61291100 3.4 1020660
18:00+5св61292100 1.0 1020692
21:00+5св61392100 1.0 1020648
16 апреля, пт
пт1600:00+5св61392100 0.3 1020617
03:00+5св6149192 0.3 1019589
06:00+5всв51292100 0.0 1020625
09:00+6св51289100 0.1 1020605
12:00+5св51291100 0.5 1021607
15:00+8всв5985100 0.5 1022679
18:00+9св51182100 0.0 1021999
21:00+10всв61481100 0.0 1022791
17 апреля, сб
сб1700:00+8всв5148599 0.0 1023566
03:00+6всв51287100 0.0 1023437
06:00+6всв41287100 0.0 1024399
09:00+7всв41181100 0.0 1025483
12:00+12всв476555 0.0 1025854
15:00+14всв5759100 0.0 10251348
18:00+13всв4862100 0.0 10251207
21:00+11всв3971100 0.0 1026413
18 апреля, вс
вс1800:00+8всв3108376 0.0 1027293
03:00+6всв397894 0.0 1027239
06:00+4всв3107725 0.0 1027245
09:00+8в48595 0.0 1027449
12:00+13в46440 0.0 10271113
15:00+15в46395 0.0 10271605
18:00+15в35435 0.0 10271744
21:00+9в37644 0.0 1028139